| time (UTC) | temp C | wind direction | speed KPH | gust KPH | rain 1hr cm | rain 24hr cm | rain mn cm | humidity % | barometer mb |
| 20260504224046 | 15 | -1 | 12.9 | 25.7 | 0.00 | 0.00 | 0.00 | 5 | 996.8 |
| 20260504223539 | 15 | -1 | 12.9 | 22.5 | 0.00 | 0.00 | 0.00 | 5 | 997.4 |
| 20260504223032 | 15 | -1 | 11.3 | 17.7 | 0.00 | 0.00 | 0.00 | 5 | 997.5 |
| 20260504222525 | 16 | -1 | 8.0 | 14.5 | 0.00 | 0.00 | 0.00 | 5 | 997.2 |
| 20260504222018 | 16 | -1 | 9.7 | 17.7 | 0.00 | 0.00 | 0.00 | 5 | 996.9 |
| 20260504221511 | 16 | -1 | 11.3 | 16.1 | 0.00 | 0.00 | 0.00 | 5 | 995.8 |
| 20260504221004 | 16 | -1 | 8.0 | 14.5 | 0.00 | 0.00 | 0.00 | 5 | 995.1 |
| 20260504220456 | 16 | -1 | 9.7 | 16.1 | 0.00 | 0.00 | 0.00 | 5 | 994.9 |
| 20260504215949 | 16 | -1 | 9.7 | 14.5 | 0.00 | 0.00 | 0.00 | 5 | 995.2 |
| 20260504215442 | 16 | -1 | 9.7 | 17.7 | 0.00 | 0.00 | 0.00 | 5 | 995.7 |
| 20260504214934 | 16 | -1 | 6.4 | 12.9 | 0.00 | 0.00 | 0.00 | 4 | 997.6 |
| 20260504214427 | 17 | -1 | 6.4 | 11.3 | 0.00 | 0.00 | 0.00 | 4 | 997.1 |
| 20260504213920 | 17 | -1 | 8.0 | 12.9 | 0.00 | 0.00 | 0.00 | 5 | 996.2 |
| 20260504213412 | 17 | -1 | 8.0 | 12.9 | 0.00 | 0.00 | 0.00 | 5 | 995.1 |
| 20260504212904 | 17 | -1 | 8.0 | 12.9 | 0.00 | 0.00 | 0.00 | 5 | 994.9 |
| 20260504212356 | 17 | -1 | 9.7 | 12.9 | 0.00 | 0.00 | 0.00 | 5 | 995.3 |
| 20260504211848 | 17 | -1 | 9.7 | 16.1 | 0.00 | 0.00 | 0.00 | 5 | 994.9 |
| 20260504211341 | 17 | -1 | 6.4 | 11.3 | 0.00 | 0.00 | 0.00 | 5 | 995.5 |
| 20260504210834 | 17 | -1 | 8.0 | 14.5 | 0.00 | 0.00 | 0.00 | 5 | 994.8 |
| 20260504210326 | 17 | -1 | 6.4 | 9.7 | 0.00 | 0.00 | 0.00 | 5 | 995.3 |
| 20260504205819 | 17 | -1 | 6.4 | 11.3 | 0.00 | 0.00 | 0.00 | 5 | 995.0 |
| 20260504205311 | 17 | -1 | 8.0 | 14.5 | 0.00 | 0.00 | 0.00 | 5 | 994.5 |
| 20260504204804 | 17 | -1 | 8.0 | 14.5 | 0.00 | 0.00 | 0.00 | 5 | 994.7 |
| 20260504204256 | 17 | -1 | 8.0 | 12.9 | 0.00 | 0.00 | 0.00 | 5 | 995.0 |
| 20260504203748 | 17 | -1 | 8.0 | 11.3 | 0.00 | 0.00 | 0.00 | 5 | 995.5 |
| 20260504203241 | 17 | -1 | 8.0 | 12.9 | 0.00 | 0.00 | 0.00 | 5 | 995.2 |
| 20260504202733 | 17 | -1 | 0.0 | 0.0 | 0.00 | 0.00 | 0.00 | 5 | 995.6 |
| 20260504202225 | 17 | -1 | 0.0 | 0.0 | 0.00 | 0.00 | 0.00 | 5 | 996.1 |
| 20260504201718 | 17 | -1 | 0.0 | 0.0 | 0.00 | 0.00 | 0.00 | 5 | 995.8 |
| 20260504201210 | 17 | -1 | 0.0 | 0.0 | 0.00 | 0.00 | 0.00 | 5 | 995.5 |
| 20260504200703 | 18 | -1 | 6.4 | 12.9 | 0.00 | 0.00 | 0.00 | 4 | 996.8 |
| 20260504200155 | 18 | -1 | 8.0 | 12.9 | 0.00 | 0.00 | 0.00 | 4 | 996.7 |
| 20260504195647 | 18 | -1 | 8.0 | 11.3 | 0.00 | 0.00 | 0.00 | 4 | 996.0 |
| 20260504195139 | 18 | -1 | 8.0 | 11.3 | 0.00 | 0.00 | 0.00 | 4 | 996.0 |
| 20260504194631 | 18 | -1 | 8.0 | 11.3 | 0.00 | 0.00 | 0.00 | 4 | 996.1 |
| 20260504194123 | 18 | -1 | 6.4 | 9.7 | 0.00 | 0.00 | 0.00 | 4 | 996.4 |
| 20260504193615 | 18 | -1 | 6.4 | 12.9 | 0.00 | 0.00 | 0.00 | 4 | 996.6 |
| 20260504193107 | 18 | -1 | 8.0 | 14.5 | 0.00 | 0.00 | 0.00 | 4 | 996.8 |
| 20260504192559 | 18 | -1 | 9.7 | 14.5 | 0.00 | 0.00 | 0.00 | 4 | 996.3 |
| 20260504192052 | 18 | -1 | 8.0 | 14.5 | 0.00 | 0.00 | 0.00 | 4 | 996.3 |
| 20260504191545 | 18 | -1 | 9.7 | 14.5 | 0.00 | 0.00 | 0.00 | 4 | 996.3 |
| 20260504191037 | 18 | -1 | 11.3 | 14.5 | 0.00 | 0.00 | 0.00 | 4 | 995.7 |
| 20260504190529 | 18 | -1 | 9.7 | 14.5 | 0.00 | 0.00 | 0.00 | 4 | 995.8 |
| 20260504190022 | 18 | -1 | 8.0 | 14.5 | 0.00 | 0.00 | 0.00 | 4 | 996.0 |
| 20260504185514 | 18 | -1 | 9.7 | 16.1 | 0.00 | 0.00 | 0.00 | 4 | 995.1 |
| 20260504185006 | 18 | -1 | 8.0 | 14.5 | 0.00 | 0.00 | 0.00 | 4 | 995.9 |
| 20260504184458 | 18 | -1 | 8.0 | 16.1 | 0.00 | 0.00 | 0.00 | 4 | 996.1 |
| 20260504183951 | 19 | -1 | 8.0 | 16.1 | 0.00 | 0.00 | 0.00 | 4 | 995.9 |
| 20260504183444 | 19 | -1 | 8.0 | 12.9 | 0.00 | 0.00 | 0.00 | 4 | 996.0 |
| 20260504182936 | 19 | -1 | 8.0 | 12.9 | 0.00 | 0.00 | 0.00 | 4 | 995.7 |
| 20260504182428 | 19 | -1 | 9.7 | 12.9 | 0.00 | 0.00 | 0.00 | 4 | 995.5 |
| 20260504181921 | 19 | -1 | 6.4 | 12.9 | 0.00 | 0.00 | 0.00 | 4 | 995.7 |
| 20260504181413 | 19 | -1 | 8.0 | 14.5 | 0.00 | 0.00 | 0.00 | 4 | 995.0 |
| 20260504180906 | 19 | -1 | 8.0 | 16.1 | 0.00 | 0.00 | 0.00 | 4 | 994.5 |
| 20260504180359 | 20 | -1 | 11.3 | 19.3 | 0.00 | 0.00 | 0.00 | 4 | 995.7 |
| 20260504175852 | 20 | -1 | 6.4 | 12.9 | 0.00 | 0.00 | 0.00 | 4 | 995.6 |
| 20260504175345 | 20 | -1 | 9.7 | 19.3 | 0.00 | 0.00 | 0.00 | 4 | 995.2 |
| 20260504174837 | 20 | 90 | 11.3 | 17.7 | 0.00 | 0.00 | 0.00 | 4 | 994.8 |
| 20260504174330 | 20 | -1 | 8.0 | 12.9 | 0.00 | 0.00 | 0.00 | 4 | 995.5 |
| 20260504173823 | 20 | -1 | 6.4 | 14.5 | 0.00 | 0.00 | 0.00 | 4 | 995.7 |
| 20260504173315 | 20 | -1 | 8.0 | 14.5 | 0.00 | 0.00 | 0.00 | 4 | 996.1 |
| 20260504172808 | 20 | -1 | 9.7 | 16.1 | 0.00 | 0.00 | 0.00 | 4 | 996.3 |
| 20260504172303 | 20 | 90 | 9.7 | 16.1 | 0.00 | 0.00 | 0.00 | 4 | 995.7 |
| 20260504171754 | 20 | -1 | 11.3 | 16.1 | 0.00 | 0.00 | 0.00 | 4 | 996.0 |
| 20260504171247 | 20 | -1 | 9.7 | 19.3 | 0.00 | 0.00 | 0.00 | 3 | 996.1 |
| 20260504170740 | 21 | 45 | 9.7 | 17.7 | 0.00 | 0.00 | 0.00 | 3 | 996.8 |
| 20260504170233 | 21 | -1 | 8.0 | 14.5 | 0.00 | 0.00 | 0.00 | 3 | 996.3 |
| 20260504160106 | 22 | -1 | 8.0 | 11.3 | 0.00 | 0.00 | 0.00 | 3 | 997.5 |
| 20260504150951 | 22 | -1 | 9.7 | 17.7 | 0.00 | 0.00 | 0.00 | 3 | 998.4 |
| 20260504150444 | 22 | -1 | 9.7 | 16.1 | 0.00 | 0.00 | 0.00 | 3 | 997.7 |
| 20260504141330 | 22 | -1 | 12.9 | 20.9 | 0.00 | 0.00 | 0.00 | 3 | 998.2 |
| 20260504140822 | 22 | -1 | 9.7 | 17.7 | 0.00 | 0.00 | 0.00 | 3 | 999.8 |
| 20260504140315 | 22 | -1 | 9.7 | 19.3 | 0.00 | 0.00 | 0.00 | 3 | 1000.1 |
| 20260504130654 | 21 | -1 | 11.3 | 20.9 | 0.00 | 0.00 | 0.00 | 3 | 998.8 |
| 20260504130146 | 22 | -1 | 8.0 | 12.9 | 0.00 | 0.00 | 0.00 | 3 | 1000.8 |
| 20260504110400 | 22 | 0 | 0.0 | 0.0 | 0.00 | 0.00 | 0.00 | 3 | 1003.0 |
| 20260504100228 | 20 | -1 | 9.7 | 16.1 | 0.00 | 0.00 | 0.00 | 4 | 1001.3 |
| 20260504081957 | 19 | -1 | 12.9 | 20.9 | 0.00 | 0.00 | 0.00 | 4 | 999.1 |
| 20260504081449 | 19 | -1 | 8.0 | 14.5 | 0.00 | 0.00 | 0.00 | 4 | 1002.7 |
| 20260504080941 | 19 | -1 | 9.7 | 16.1 | 0.00 | 0.00 | 0.00 | 4 | 1002.6 |
| 20260504080433 | 18 | -1 | 9.7 | 17.7 | 0.00 | 0.00 | 0.00 | 4 | 1000.3 |
| 20260504070304 | 16 | -1 | 9.7 | 14.5 | 0.00 | 0.00 | 0.00 | 5 | 1001.1 |
| 20260504060135 | 15 | -1 | 9.7 | 14.5 | 0.00 | 0.00 | 0.00 | 6 | 999.7 |
| 20260504050516 | 10 | -1 | 6.4 | 9.7 | 0.00 | 0.00 | 0.00 | 6 | 998.6 |
| 20260504050009 | 10 | -1 | 6.4 | 11.3 | 0.00 | 0.00 | 0.00 | 6 | 999.5 |
| 20260504045502 | 10 | -1 | 9.7 | 14.5 | 0.00 | 0.00 | 0.00 | 6 | 999.9 |
| 20260504044954 | 12 | -1 | 0.0 | 0.0 | 0.00 | 0.00 | 0.00 | 6 | 996.3 |
| 20260504044447 | 11 | -1 | 0.0 | 0.0 | 0.00 | 0.00 | 0.00 | 6 | 996.6 |
| 20260504043939 | 11 | -1 | 0.0 | 0.0 | 0.00 | 0.00 | 0.00 | 6 | 996.4 |
| 20260504043432 | 12 | -1 | 0.0 | 0.0 | 0.00 | 0.00 | 0.00 | 6 | 997.5 |
| 20260504042925 | 12 | -1 | 0.0 | 0.0 | 0.00 | 0.00 | 0.00 | 6 | 996.8 |
| 20260504042417 | 12 | -1 | 0.0 | 0.0 | 0.00 | 0.00 | 0.00 | 6 | 996.7 |
| 20260504041909 | 12 | -1 | 0.0 | 0.0 | 0.00 | 0.00 | 0.00 | 6 | 995.8 |
| 20260504041402 | 12 | -1 | 0.0 | 0.0 | 0.00 | 0.00 | 0.00 | 5 | 996.9 |
| 20260504040855 | 12 | -1 | 0.0 | 0.0 | 0.00 | 0.00 | 0.00 | 5 | 999.2 |
| 20260504040347 | 12 | -1 | 0.0 | 0.0 | 0.00 | 0.00 | 0.00 | 5 | 999.5 |
| 20260504035840 | 12 | -1 | 4.8 | 4.8 | 0.00 | 0.00 | 0.00 | 5 | 997.2 |
| 20260504035333 | 12 | -1 | 6.4 | 9.7 | 0.00 | 0.00 | 0.00 | 5 | 997.5 |
| 20260504034826 | 12 | -1 | 8.0 | 12.9 | 0.00 | 0.00 | 0.00 | 5 | 997.0 |
| 20260504034319 | 12 | -1 | 6.4 | 9.7 | 0.00 | 0.00 | 0.00 | 5 | 996.5 |
| 20260504033812 | 13 | -1 | 8.0 | 11.3 | 0.00 | 0.00 | 0.00 | 5 | 996.9 |
| 20260504033305 | 13 | -1 | 0.0 | 0.0 | 0.00 | 0.00 | 0.00 | 5 | 996.6 |
| 20260504032758 | 13 | -1 | 0.0 | 0.0 | 0.00 | 0.00 | 0.00 | 5 | 996.8 |
| 20260504032251 | 13 | -1 | 0.0 | 0.0 | 0.00 | 0.00 | 0.00 | 5 | 996.6 |
| 20260504031744 | 13 | -1 | 0.0 | 0.0 | 0.00 | 0.00 | 0.00 | 6 | 995.4 |
| 20260504031237 | 13 | -1 | 0.0 | 0.0 | 0.00 | 0.00 | 0.00 | 6 | 995.5 |
| 20260504030729 | 13 | -1 | 0.0 | 0.0 | 0.00 | 0.00 | 0.00 | 6 | 995.7 |
| 20260504030222 | 13 | -1 | 0.0 | 0.0 | 0.00 | 0.00 | 0.00 | 5 | 995.6 |
| 20260504025714 | 13 | -1 | 0.0 | 0.0 | 0.00 | 0.00 | 0.00 | 5 | 997.0 |
| 20260504025207 | 13 | -1 | 0.0 | 0.0 | 0.00 | 0.00 | 0.00 | 5 | 997.0 |
| 20260504024700 | 13 | -1 | 0.0 | 0.0 | 0.00 | 0.00 | 0.00 | 5 | 995.7 |
| 20260504024153 | 13 | -1 | 0.0 | 0.0 | 0.00 | 0.00 | 0.00 | 5 | 996.2 |
| 20260504023645 | 13 | -1 | 0.0 | 0.0 | 0.00 | 0.00 | 0.00 | 5 | 996.1 |
| 20260504023138 | 13 | -1 | 0.0 | 0.0 | 0.00 | 0.00 | 0.00 | 5 | 996.5 |
| 20260504022630 | 14 | -1 | 0.0 | 0.0 | 0.00 | 0.00 | 0.00 | 5 | 996.2 |
| 20260504022122 | 14 | -1 | 0.0 | 0.0 | 0.00 | 0.00 | 0.00 | 5 | 995.9 |
| 20260504021615 | 14 | -1 | 0.0 | 0.0 | 0.00 | 0.00 | 0.00 | 5 | 995.7 |
| 20260504021108 | 14 | -1 | 0.0 | 0.0 | 0.00 | 0.00 | 0.00 | 5 | 995.7 |
| 20260504020601 | 14 | -1 | 8.0 | 11.3 | 0.00 | 0.00 | 0.00 | 5 | 995.3 |
| 20260504020054 | 14 | -1 | 9.7 | 11.3 | 0.00 | 0.00 | 0.00 | 5 | 996.0 |
| 20260504015547 | 14 | -1 | 0.0 | 0.0 | 0.00 | 0.00 | 0.00 | 5 | 996.1 |
| 20260504015040 | 15 | -1 | 8.0 | 9.7 | 0.00 | 0.00 | 0.00 | 5 | 995.7 |
| 20260504014533 | 15 | -1 | 9.7 | 11.3 | 0.00 | 0.00 | 0.00 | 5 | 996.2 |
| 20260504014026 | 15 | -1 | 0.0 | 0.0 | 0.00 | 0.00 | 0.00 | 5 | 996.2 |
| 20260504013519 | 15 | -1 | 0.0 | 0.0 | 0.00 | 0.00 | 0.00 | 5 | 996.5 |
| 20260504013012 | 15 | -1 | 0.0 | 0.0 | 0.00 | 0.00 | 0.00 | 5 | 995.7 |
| 20260504012505 | 15 | -1 | 0.0 | 0.0 | 0.00 | 0.00 | 0.00 | 5 | 995.8 |
| 20260504011958 | 15 | -1 | 0.0 | 0.0 | 0.00 | 0.00 | 0.00 | 5 | 995.5 |
| 20260504011450 | 15 | -1 | 0.0 | 0.0 | 0.00 | 0.00 | 0.00 | 5 | 995.6 |
| 20260504010943 | 16 | -1 | 0.0 | 0.0 | 0.00 | 0.00 | 0.00 | 5 | 995.1 |
| 20260504010436 | 15 | -1 | 0.0 | 0.0 | 0.00 | 0.00 | 0.00 | 5 | 995.0 |
| 20260504005929 | 15 | -1 | 0.0 | 0.0 | 0.00 | 0.00 | 0.00 | 5 | 995.3 |
| 20260504005422 | 15 | -1 | 0.0 | 0.0 | 0.00 | 0.00 | 0.00 | 5 | 995.2 |
| 20260504004915 | 15 | -1 | 0.0 | 0.0 | 0.00 | 0.00 | 0.00 | 5 | 995.0 |
| 20260504004407 | 15 | -1 | 0.0 | 0.0 | 0.00 | 0.00 | 0.00 | 5 | 995.0 |
| 20260504003900 | 16 | -1 | 0.0 | 0.0 | 0.00 | 0.00 | 0.00 | 5 | 995.4 |
| 20260504003353 | 16 | -1 | 0.0 | 0.0 | 0.00 | 0.00 | 0.00 | 5 | 994.9 |
| 20260504002846 | 16 | -1 | 0.0 | 0.0 | 0.00 | 0.00 | 0.00 | 5 | 995.2 |
| 20260504002338 | 16 | -1 | 0.0 | 0.0 | 0.00 | 0.00 | 0.00 | 5 | 995.0 |
| 20260504001830 | 16 | -1 | 0.0 | 0.0 | 0.00 | 0.00 | 0.00 | 5 | 995.2 |
| 20260504001323 | 16 | -1 | 0.0 | 0.0 | 0.00 | 0.00 | 0.00 | 5 | 995.1 |
| 20260504000816 | 16 | -1 | 0.0 | 0.0 | 0.00 | 0.00 | 0.00 | 4 | 995.4 |
| 20260504000308 | 16 | -1 | 8.0 | 9.7 | 0.00 | 0.00 | 0.00 | 5 | 995.1 |
| 20260503235801 | 17 | -1 | 0.0 | 0.0 | 0.00 | 0.00 | 0.00 | 4 | 994.3 |
| 20260503235254 | 17 | -1 | 0.0 | 0.0 | 0.00 | 0.00 | 0.00 | 4 | 995.0 |
| 20260503234747 | 17 | -1 | 0.0 | 0.0 | 0.00 | 0.00 | 0.00 | 4 | 994.7 |
| 20260503234240 | 16 | -1 | 0.0 | 0.0 | 0.00 | 0.00 | 0.00 | 4 | 994.2 |
| 20260503233733 | 17 | -1 | 0.0 | 0.0 | 0.00 | 0.00 | 0.00 | 4 | 993.6 |
| 20260503233225 | 17 | -1 | 0.0 | 0.0 | 0.00 | 0.00 | 0.00 | 4 | 996.8 |
| 20260503232717 | 17 | -1 | 6.4 | 11.3 | 0.00 | 0.00 | 0.00 | 4 | 997.2 |
| 20260503232210 | 17 | -1 | 11.3 | 16.1 | 0.00 | 0.00 | 0.00 | 4 | 996.8 |
| 20260503231703 | 17 | -1 | 11.3 | 20.9 | 0.00 | 0.00 | 0.00 | 4 | 997.0 |
| 20260503231156 | 17 | -1 | 11.3 | 20.9 | 0.00 | 0.00 | 0.00 | 4 | 996.7 |
| 20260503230649 | 17 | -1 | 9.7 | 17.7 | 0.00 | 0.00 | 0.00 | 4 | 997.0 |
| 20260503230142 | 17 | -1 | 12.9 | 20.9 | 0.00 | 0.00 | 0.00 | 4 | 996.8 |
| 20260503225635 | 17 | -1 | 16.1 | 25.7 | 0.00 | 0.00 | 0.00 | 4 | 996.9 |
| 20260503225128 | 17 | -1 | 16.1 | 25.7 | 0.00 | 0.00 | 0.00 | 4 | 995.3 |
| 20260503224621 | 17 | -1 | 14.5 | 22.5 | 0.00 | 0.00 | 0.00 | 4 | 996.2 |